"Pseudo-MPEC" for P10Lfgx

Created 2019 Jan 12 21:18:32 UT using Find_Orb

Click here for an explanation of pseudo-MPECs

 
 Astrometry: 
     P10Lfgx  C2019 01 096g.f6v^yjiV'4WmPgCT/5Omr\,pNWwAstrometry?y_+5[C4KgE-F51
     P10Lfgx  C2019 01 09_Rg4Ega[M1d^b)]Ghr)fa.S,;.bo9Qmx]Zg(G(=N9'20p#SB,s)oF51
     P10Lfgx  C2019 01 09M\M%?-F!.N?\BFnx1!ab7DW=4redacted;AQeG$N]A[*wC2%TN,'F51
     P10Lfgx  C2019 01 09,'ytHP9J.;xF74*4W*7KF?WNe?sMi0YJ/Ss:lwbuHy/R3AI=Xt=wF51
     P10Lfgx |C2019 01 10HOs8UF,C/dW=(dP#3G5-fld(q)r@2t9$click*_1`\@$TQA6;K9N807
     P10Lfgx |C2019 01 10Twy7osICfN'%9gaYk0fRL7lTctj.irbfKT5y#Xe+:ED[,W'HBmUH807
     P10Lfgx |C2019 01 100dM*hereD'?w^RDlaBMnTpBKjaLFcmN@e!Kc(j`fv#0hSpf-$])Z807
     P10Lfgx KC2019 01 10kf31R46op'V\W3GQTp;NUD/=q*,DiQ1c=jy2`ZBClUDlaRYmj4kSW85
     P10Lfgx KC2019 01 10CK*`ht:U[NwX@-V2H.('UMoFbFHFjt**XxKmMIKG0[4XforC9xi.W85
     P10Lfgx KC2019 01 10chS7L7-+6Yx=\$l_R$]I=[l%Zpgt9v7[)N.A\m1;ENQIFCcy!F[HW85
     P10Lfgx KC2019 01 12;[mDdU?FH*;nXlqYiZ2jZ4b6_eU#Ugk5=Uj6U9AJaSpX2_mD)M2E291
     P10Lfgx KC2019 01 12F/5Cd%Y?rTi3.explanation_l@x_e[fwd0s%rk%x!nu?M.9Fc\3291

Station data:
(291) LPL/Spacewatch II  (N31.961669 W111.599905)  US/Arizona.  Observers J.
   V. Scotti, R. S. McMillan. 1.8-m f/2.7 reflector + CCD.
(807) Cerro Tololo Observatory, La Serena  (S30.169136 W70.805900)  Chile.
   1.5-m Ritchey-Chrétien.
(F51) Pan-STARRS 1, Haleakala  (N20.707235 W156.255910)  US/Hawaii.
   Observers N. Primak, A. Schultz, S. Watters, J. Thiel, T. Goggia. Measurer
   PS1 Science Consortium. 1.8-m Ritchey-Chrétien + CCD.
(W85) Cerro Tololo-LCO A  (S30.167407 W70.804810)  Chile.  Observers T.
   Lister, S. Greenstreet, E. Gomez. Measurer T. Lister. 1.0-m f/8
   Ritchey-Chrétien + CCD.

Orbital elements:  P10Lfgx
   Perihelion 2018 Dec 22.886624 +/- 1.08 TT = 21:16:44 (JD 2458475.386624)
Epoch 2019 Jan 12.0 TT = JDT 2458495.5   Earth MOID: 0.4978   AutoNEOCP
M   5.65817204 +/- 0.6              (J2000 ecliptic)
n   0.28131389 +/- 0.0223           Peri.  245.26992 +/- 1.1
a   2.30679284 +/- 0.122            Node   183.14469 +/- 0.8
e   0.3993994 +/- 0.0267            Incl.   18.71216 +/- 0.21
P   3.50                   H 20.1   G  0.15   U 10.2  
q 1.38546106 +/- 0.0125    Q 3.22812462 +/- 0.25
From 12 observations 2019 Jan. 9-12; mean residual 0".24
Residuals in arcseconds: 
190109 F51  .18-  .14-    190110 807  .23-  .44+    190110 W85  .03-  .12-    
190109 F51  .07+  .02-    190110 807  .09+  .04+    190110 W85  .04-  .20-    
190109 F51  .03-  .11-    190110 807  .08+  .08+    190112 291  .19-  .62-    
190109 F51  .17+  .20+    190110 W85  .10+  .16-    190112 291  .20+  .60+    

Ephemerides (geocentric):
Date (UTC) HH   RA              Dec         delta   r     elong  mag " sig PA
---- -- -- --  -------------   -----------  ------ ------ -----  --- ---- ---
2019 01 12 21  03 02 20.483   -17 40 21.34  .80504 1.3989 102.5 22.0 .058  45
2019 01 12 22  03 02 25.690   -17 39 34.92  .80526 1.3990 102.4 22.0 .057  47
2019 01 12 23  03 02 30.899   -17 38 48.48  .80547 1.3990 102.4 22.0 .057  48
2019 01 13 00  03 02 36.110   -17 38 02.01  .80569 1.3991 102.4 22.0 .056  50
2019 01 13 01  03 02 41.323   -17 37 15.51  .80590 1.3991 102.4 22.0 .055  51
2019 01 13 02  03 02 46.538   -17 36 28.99  .80612 1.3992 102.4 22.0 .054  53
2019 01 13 03  03 02 51.754   -17 35 42.45  .80633 1.3992 102.4 22.0 .054  55
2019 01 13 04  03 02 56.973   -17 34 55.89  .80655 1.3993 102.4 22.0 .053  57
2019 01 13 05  03 03 02.193   -17 34 09.30  .80676 1.3993 102.4 22.0 .053  59
2019 01 13 06  03 03 07.416   -17 33 22.68  .80698 1.3994 102.4 22.0 .052  61
2019 01 13 07  03 03 12.640   -17 32 36.05  .80719 1.3994 102.3 22.0 .052  63
2019 01 13 08  03 03 17.866   -17 31 49.38  .80741 1.3995 102.3 22.0 .051  66
2019 01 13 09  03 03 23.093   -17 31 02.70  .80762 1.3995 102.3 22.0 .051  68
2019 01 13 10  03 03 28.323   -17 30 15.99  .80784 1.3996 102.3 22.0 .051  70
2019 01 13 11  03 03 33.555   -17 29 29.26  .80805 1.3996 102.3 22.0 .051  73
2019 01 13 12  03 03 38.788   -17 28 42.50  .80827 1.3997 102.3 22.0 .051  76
2019 01 13 13  03 03 44.023   -17 27 55.73  .80848 1.3998 102.3 22.0 .052  78
2019 01 13 14  03 03 49.260   -17 27 08.92  .80870 1.3998 102.3 22.0 .052  81
2019 01 13 15  03 03 54.499   -17 26 22.10  .80891 1.3999 102.3 22.0 .053  83
2019 01 13 16  03 03 59.740   -17 25 35.25  .80913 1.3999 102.3 22.0 .053  86
2019 01 13 17  03 04 04.983   -17 24 48.38  .80934 1.4000 102.2 22.0 .054  88
2019 01 13 18  03 04 10.227   -17 24 01.48  .80956 1.4000 102.2 22.0 .055  91
2019 01 13 19  03 04 15.473   -17 23 14.56  .80977 1.4001 102.2 22.0 .056  93
2019 01 13 20  03 04 20.722   -17 22 27.62  .80999 1.4001 102.2 22.0 .057  96
2019 01 13 21  03 04 25.972   -17 21 40.66  .81021 1.4002 102.2 22.0 .059  98
2019 01 13 22  03 04 31.223   -17 20 53.67  .81042 1.4003 102.2 22.1 .060 100
2019 01 13 23  03 04 36.477   -17 20 06.66  .81064 1.4003 102.2 22.1 .062 103
2019 01 14 00  03 04 41.732   -17 19 19.63  .81085 1.4004 102.2 22.1 .064 105
2019 01 14 01  03 04 46.990   -17 18 32.57  .81107 1.4004 102.2 22.1 .066 107
2019 01 14 02  03 04 52.249   -17 17 45.49  .81129 1.4005 102.1 22.1 .068 109
2019 01 14 03  03 04 57.510   -17 16 58.39  .81150 1.4005 102.1 22.1 .070 110
2019 01 14 04  03 05 02.773   -17 16 11.26  .81172 1.4006 102.1 22.1 .072 112
2019 01 14 05  03 05 08.037   -17 15 24.12  .81193 1.4006 102.1 22.1 .075 114
2019 01 14 06  03 05 13.303   -17 14 36.95  .81215 1.4007 102.1 22.1 .077 115
2019 01 14 07  03 05 18.572   -17 13 49.75  .81237 1.4008 102.1 22.1 .080 117
2019 01 14 08  03 05 23.842   -17 13 02.54  .81258 1.4008 102.1 22.1 .083 118
2019 01 14 09  03 05 29.114   -17 12 15.30  .81280 1.4009 102.1 22.1 .085 119
2019 01 14 10  03 05 34.387   -17 11 28.04  .81302 1.4009 102.1 22.1 .088 120
2019 01 14 11  03 05 39.663   -17 10 40.76  .81323 1.4010 102.1 22.1 .091 122
2019 01 14 12  03 05 44.940   -17 09 53.45  .81345 1.4010 102.0 22.1 .095 123
2019 01 14 13  03 05 50.219   -17 09 06.13  .81367 1.4011 102.0 22.1 .098 124
2019 01 14 14  03 05 55.500   -17 08 18.78  .81389 1.4012 102.0 22.1 .101 125
2019 01 14 15  03 06 00.783   -17 07 31.41  .81410 1.4012 102.0 22.1 .104 125
2019 01 14 16  03 06 06.067   -17 06 44.01  .81432 1.4013 102.0 22.1 .108 126
2019 01 14 17  03 06 11.353   -17 05 56.60  .81454 1.4013 102.0 22.1 .111 127
2019 01 14 18  03 06 16.641   -17 05 09.16  .81475 1.4014 102.0 22.1 .115 128
2019 01 14 19  03 06 21.931   -17 04 21.70  .81497 1.4014 102.0 22.1 .119 128
2019 01 14 20  03 06 27.223   -17 03 34.22  .81519 1.4015 102.0 22.1 .123 129